Change the Weather History Date:

Wednesday, March 13, 2013

  Actual Average Record
Temperature  
Mean Temperature 42 °F -  
Max Temperature 51 °F 46 °F 75 °F (2006)
Min Temperature 33 °F 27 °F 12 °F (1984)
Degree Days  
Heating Degree Days 24    
Moisture  
Dew Point 29 °F    
Average Humidity 62    
Maximum Humidity 96    
Minimum Humidity 36    
Precipitation  
Precipitation 0.01 in - - ()
Sea Level Pressure  
Sea Level Pressure 29.86 in    
Wind  
Wind Speed 5 mph (WNW)    
Max Wind Speed 12 mph    
Max Gust Speed 21 mph    
Visibility 10 miles    
Events Rain    
Averages and records for this station are not official NWS values.
T = Trace of Precipitation, MM = Missing Value Source: NWS Daily Summary

Daily Weather History Graph

Daily Weather History Graph

Search for Another Location

Airport or City:

Trip Planner

Search our weather history database for the weather conditions in past years. The results will help you decide how hot, cold, wet, or windy it might be!

Date:

Astronomy

Mar. 13, 2013 Rise Set
Actual Time 7:13 AM EDT 7:03 PM EDT
Civil Twilight 6:45 AM EDT 7:30 PM EDT
Nautical Twilight 6:14 AM EDT 8:02 PM EDT
Astronomical Twilight 5:42 AM EDT 8:34 PM EDT
Moon 7:50 AM EDT (3/13) 9:18 PM EDT (3/13)
Length of Visible Light 12h 44m
Length of Day
11h 50m
Waxing Crescent, 4% of the Moon is Illuminated
Mar 13
Waxing Crescent
Mar 19
First Quarter
Mar 27
Full
Apr 3
Last Quarter
Apr 10
New

Hourly Weather History & Observations

Time (EDT) Temp. Windchill Dew Point Humidity Pressure Visibility Wind Dir Wind Speed Gust Speed Precip Events Conditions
12:53 AM 41.0 °F 38.0 °F 36.0 °F 82% 29.85 in 10.0 mi NW 4.6 mph - N/A   Scattered Clouds
1:53 AM 39.9 °F 37.8 °F 36.0 °F 86% 29.86 in 10.0 mi NW 3.5 mph - N/A   Mostly Cloudy
2:53 AM 42.8 °F 38.6 °F 37.4 °F 81% 29.86 in 10.0 mi WNW 6.9 mph - N/A Rain Light Rain
3:16 AM 41.0 °F 35.2 °F 35.6 °F 81% 29.86 in 10.0 mi WNW 9.2 mph - 0.00 in Rain Light Rain
3:53 AM 41.0 °F 37.1 °F 35.1 °F 79% 29.87 in 10.0 mi Variable 5.8 mph - 0.01 in   Overcast
4:53 AM 41.0 °F 38.0 °F 35.1 °F 79% 29.87 in 10.0 mi WNW 4.6 mph - N/A   Overcast
5:53 AM 39.0 °F - 34.0 °F 82% 29.88 in 10.0 mi Calm Calm - N/A   Mostly Cloudy
6:53 AM 34.0 °F - 33.1 °F 96% 29.89 in 10.0 mi Calm Calm - N/A   Clear
7:53 AM 33.1 °F - 32.0 °F 96% 29.90 in 7.0 mi Calm Calm - N/A   Clear
8:53 AM 39.9 °F 36.7 °F 32.0 °F 73% 29.90 in 10.0 mi Variable 4.6 mph - N/A   Clear
9:53 AM 44.1 °F 39.5 °F 28.9 °F 55% 29.89 in 10.0 mi WNW 8.1 mph - N/A   Clear
10:53 AM 45.0 °F 41.2 °F 26.1 °F 48% 29.88 in 10.0 mi North 6.9 mph - N/A   Clear
11:53 AM 46.9 °F - 26.1 °F 44% 29.87 in 10.0 mi Variable 4.6 mph - N/A   Partly Cloudy
12:53 PM 48.0 °F - 24.1 °F 39% 29.85 in 10.0 mi West 8.1 mph - N/A   Clear
1:53 PM 50.0 °F - 24.1 °F 36% 29.83 in 10.0 mi West 11.5 mph 20.7 mph N/A   Clear
2:53 PM 48.0 °F - 23.0 °F 37% 29.82 in 10.0 mi West 8.1 mph 16.1 mph N/A   Mostly Cloudy
3:53 PM 48.9 °F - 24.1 °F 38% 29.81 in 10.0 mi Variable 6.9 mph - N/A   Scattered Clouds
4:53 PM 46.9 °F - 21.9 °F 37% 29.81 in 10.0 mi West 8.1 mph 17.3 mph N/A   Overcast
5:53 PM 43.0 °F 38.8 °F 30.0 °F 60% 29.85 in 10.0 mi WNW 6.9 mph 18.4 mph N/A   Overcast
6:53 PM 43.0 °F 41.3 °F 26.1 °F 51% 29.84 in 10.0 mi Variable 3.5 mph - N/A   Overcast
7:53 PM 39.9 °F - 27.0 °F 60% 29.86 in 10.0 mi Calm Calm - N/A   Mostly Cloudy
8:53 PM 41.0 °F 38.0 °F 26.1 °F 55% 29.87 in 10.0 mi West 4.6 mph - N/A   Overcast
9:53 PM 39.9 °F 32.9 °F 24.1 °F 53% 29.88 in 10.0 mi West 11.5 mph 19.6 mph N/A   Clear
10:53 PM 37.9 °F 32.1 °F 25.0 °F 60% 29.90 in 10.0 mi West 8.1 mph 20.7 mph N/A   Clear
11:53 PM 37.0 °F 31.0 °F 21.0 °F 52% 29.90 in 10.0 mi WNW 8.1 mph - N/A   Clear